Location: Newark
(25.5428°S, 54.5819°W)
Time: 08:32:37
(UTC+00:00)

Envisat - Visible Passes

Search period start: 10 August 2020 00:00
Search period end: 20 August 2020 00:00
Orbit: 764 x 766 km, 98.1° (Epoch: 10 August)

Date Brightness Start Highest point End Pass type
(mag) Time Alt. Az. Time Alt. Az. Time Alt. Az.
10 Aug 3.4 08:59:18 10° NNE 09:04:19 67° ESE 09:09:25 10° S visible
10 Aug 5.9 22:57:41 10° SW 23:00:15 14° WSW 23:02:49 10° W visible
11 Aug 5.1 08:23:33 10° NE 08:27:45 26° ESE 08:31:57 10° SSE visible
11 Aug 4.7 22:19:11 10° S 22:23:48 35° WSW 22:28:22 10° NW visible
12 Aug 6.1 07:50:42 10° ESE 07:51:20 10° ESE 07:51:58 10° ESE visible
12 Aug 3.0 09:24:42 10° N 09:29:44 63° W 09:34:49 10° SSW visible
12 Aug 3.1 21:42:00 10° SSE 21:47:09 89° WSW 21:52:15 10° NNW visible
13 Aug 3.9 08:48:07 10° NNE 08:53:01 50° ESE 08:57:59 10° S visible
13 Aug 5.7 22:45:34 10° SSW 22:49:01 18° WSW 22:52:27 10° WNW visible
14 Aug 5.5 08:12:49 10° ENE 08:16:29 20° ESE 08:20:11 10° SSE visible
14 Aug 4.2 22:07:38 10° S 22:12:30 46° WSW 22:17:20 10° NNW visible
15 Aug 3.0 09:13:18 10° N 09:18:23 83° WNW 09:23:33 10° SSW visible
16 Aug 4.5 08:37:03 10° NE 08:41:44 38° ESE 08:46:27 10° S visible
16 Aug 5.3 22:33:43 10° SSW 22:37:47 24° WSW 22:41:49 10° NW visible
17 Aug 5.8 08:02:20 10° ENE 08:05:15 15° ESE 08:08:11 10° SE visible
17 Aug 3.4 09:39:03 10° N 09:43:50 42° W 09:48:41 10° SSW visible
17 Aug 3.6 21:56:10 10° S 22:01:13 61° WSW 22:06:13 10° NNW visible
18 Aug 3.2 09:02:00 10° NNE 09:07:03 75° ESE 09:12:11 10° S visible
18 Aug 6.0 23:00:51 10° SW 23:02:57 13° WSW 23:05:04 10° W visible
19 Aug 5.0 08:26:07 10° NE 08:30:27 29° ESE 08:34:50 10° SSE visible
19 Aug 4.9 22:22:02 10° SSW 22:26:31 31° WSW 22:30:58 10° NW visible
